• In Moldova, Republic
  • List of Countries
  • For 7 days
  • Water Temperature
  • Satellite Maps
  • Weather Map
  • Weather Widgets
  • user-avatar
    Login

    Hourly Weather Graz

    Today, 24 March, Friday

    Time Temperature Precipitation Wind Pressure Humidity
    00:00 +8°C° 0 mm 1 mps 725 mmHg 93%
    01:00 +7°C° 0 mm 1 mps 726 mmHg 95%
    02:00 +7°C° 0 mm 1 mps 726 mmHg 95%
    03:00 +7°C° 0 mm 1 mps 726 mmHg 94%
    04:00 +6°C° 0 mm 1 mps 726 mmHg 94%
    05:00 +7°C° 0 mm 1 mps 727 mmHg 92%
    06:00 +8°C° 0 mm 1 mps 727 mmHg 91%
    07:00 +8°C° 0 mm 1 mps 728 mmHg 89%
    08:00 +11°C° 0 mm 1 mps 728 mmHg 80%
    09:00 +13°C° 0 mm 1 mps 728 mmHg 72%
    10:00 +15°C° 0 mm 1 mps 729 mmHg 63%
    11:00 +16°C° 0 mm 1 mps 729 mmHg 61%
    12:00 +18°C° 0 mm 1 mps 729 mmHg 59%
    13:00 +19°C° 0 mm 1 mps 729 mmHg 57%
    14:00 +18°C° 0 mm 1 mps 729 mmHg 59%
    15:00 +17°C° 0 mm 2 mps 729 mmHg 61%
    16:00 +17°C° 0 mm 2 mps 729 mmHg 64%
    17:00 +15°C° 0 mm 2 mps 729 mmHg 73%
    18:00 +13°C° 0 mm 2 mps 729 mmHg 82%
    19:00 +10°C° 0 mm 2 mps 729 mmHg 90%
    20:00 +10°C° 0 mm 1 mps 730 mmHg 91%
    21:00 +10°C° 0 mm 1 mps 730 mmHg 92%
    22:00 +9°C° 0 mm 1 mps 731 mmHg 93%
    23:00 +9°C° 0 mm 1 mps 731 mmHg 93%

    Tomorrow, 25 March, Saturday

    Time Temperature Precipitation Wind Pressure Humidity
    00:00 +9°C° 0 mm 1 mps 731 mmHg 92%
    01:00 +9°C° 0 mm 1 mps 731 mmHg 92%
    02:00 +8°C° 0 mm 1 mps 731 mmHg 91%
    03:00 +8°C° 0 mm 1 mps 731 mmHg 91%
    04:00 +8°C° 0 mm 1 mps 731 mmHg 90%
    05:00 +8°C° 0 mm 1 mps 731 mmHg 89%
    06:00 +8°C° 0 mm 1 mps 731 mmHg 87%
    07:00 +8°C° 0 mm 1 mps 731 mmHg 86%
    08:00 +9°C° 0 mm 1 mps 731 mmHg 81%
    09:00 +9°C° 0 mm 1 mps 731 mmHg 76%
    10:00 +10°C° 0 mm 1 mps 731 mmHg 71%
    11:00 +11°C° 0 mm 1 mps 731 mmHg 68%
    12:00 +12°C° 0 mm 1 mps 730 mmHg 65%
    13:00 +13°C° 0 mm 1 mps 730 mmHg 61%
    14:00 +13°C° 0 mm 1 mps 729 mmHg 63%
    15:00 +13°C° 0 mm 1 mps 729 mmHg 65%
    16:00 +13°C° 0 mm 1 mps 728 mmHg 67%
    17:00 +11°C° 0 mm 1 mps 728 mmHg 74%
    18:00 +10°C° 0 mm 1 mps 728 mmHg 81%
    19:00 +9°C° 0 mm 1 mps 727 mmHg 88%
    20:00 +8°C° 0 mm 1 mps 727 mmHg 91%
    21:00 +6°C° 0 mm 0 mps 727 mmHg 93%
    22:00 +5°C° 0 mm 0 mps 727 mmHg 95%
    23:00 +5°C° 0 mm 0 mps 727 mmHg 95%

    Day after tomorrow, 26 March, Sunday

    Time Temperature Precipitation Wind Pressure Humidity
    00:00 +5°C° 0 mm 0 mps 726 mmHg 95%
    01:00 +4°C° 0 mm 0 mps 726 mmHg 95%
    02:00 +4°C° 0 mm 0 mps 726 mmHg 95%
    03:00 +4°C° 0 mm 0 mps 725 mmHg 96%
    04:00 +4°C° 0 mm 0 mps 725 mmHg 96%
    05:00 +4°C° 0 mm 0 mps 725 mmHg 94%
    06:00 +5°C° 0 mm 0 mps 725 mmHg 92%
    07:00 +6°C° 0 mm 0 mps 725 mmHg 91%
    08:00 +9°C° 0 mm 1 mps 725 mmHg 83%
    09:00 +10°C° 0 mm 1 mps 725 mmHg 76%
    10:00 +11°C° 0 mm 1 mps 725 mmHg 69%
    11:00 +12°C° 0 mm 1 mps 725 mmHg 68%
    12:00 +12°C° 0 mm 2 mps 725 mmHg 66%
    13:00 +12°C° 0 mm 2 mps 725 mmHg 64%
    14:00 +12°C° 0 mm 2 mps 725 mmHg 65%
    15:00 +12°C° 0 mm 2 mps 725 mmHg 66%
    16:00 +12°C° 0 mm 2 mps 725 mmHg 66%
    17:00 +10°C° 0.1 mm 2 mps 726 mmHg 72%
    18:00 +8°C° 0.1 mm 2 mps 726 mmHg 79%
    19:00 +7°C° 0.1 mm 2 mps 727 mmHg 85%
    20:00 +6°C° 0.1 mm 2 mps 727 mmHg 86%
    21:00 +5°C° 0.1 mm 2 mps 728 mmHg 88%
    22:00 +5°C° 0.1 mm 2 mps 728 mmHg 89%
    23:00 +4°C° 0 mm 2 mps 729 mmHg 90%

    27 March, Monday

    Time Temperature Precipitation Wind Pressure Humidity
    00:00 +4°C° 0 mm 1 mps 729 mmHg 91%
    01:00 +4°C° 0 mm 1 mps 729 mmHg 92%
    02:00 +3°C° 0 mm 1 mps 729 mmHg 93%
    03:00 +2°C° 0 mm 1 mps 729 mmHg 93%
    04:00 +2°C° 0 mm 1 mps 729 mmHg 94%
    05:00 +3°C° 0 mm 1 mps 729 mmHg 90%
    06:00 +3°C° 0 mm 0 mps 729 mmHg 86%
    07:00 +4°C° 0 mm 0 mps 730 mmHg 83%
    08:00 +7°C° 0 mm 1 mps 730 mmHg 71%
    09:00 +9°C° 0 mm 1 mps 730 mmHg 59%
    10:00 +11°C° 0 mm 1 mps 730 mmHg 47%
    11:00 +12°C° 0 mm 1 mps 730 mmHg 43%
    12:00 +13°C° 0 mm 1 mps 730 mmHg 38%
    13:00 +14°C° 0 mm 1 mps 730 mmHg 34%
    14:00 +14°C° 0 mm 1 mps 730 mmHg 36%
    15:00 +13°C° 0 mm 1 mps 729 mmHg 38%
    16:00 +13°C° 0 mm 1 mps 729 mmHg 40%
    17:00 +10°C° 0 mm 1 mps 729 mmHg 51%
    18:00 +7°C° 0 mm 1 mps 729 mmHg 63%
    19:00 +4°C° 0 mm 1 mps 729 mmHg 74%
    20:00 +4°C° 0 mm 1 mps 729 mmHg 75%
    21:00 +3°C° 0 mm 0 mps 730 mmHg 76%
    22:00 +2°C° 0 mm 0 mps 730 mmHg 76%
    23:00 +2°C° 0 mm 0 mps 730 mmHg 76%

    28 March, Tuesday

    Time Temperature Precipitation Wind Pressure Humidity
    00:00 +2°C° 0 mm 0 mps 730 mmHg 76%
    01:00 +2°C° 0 mm 0 mps 730 mmHg 75%
    02:00 +2°C° 0 mm 0 mps 730 mmHg 75%
    03:00 +2°C° 0 mm 0 mps 730 mmHg 74%
    04:00 +2°C° 0 mm 0 mps 729 mmHg 74%
    05:00 +3°C° 0 mm 0 mps 730 mmHg 70%
    06:00 +5°C° 0 mm 1 mps 730 mmHg 65%
    07:00 +7°C° 0 mm 1 mps 730 mmHg 61%
    08:00 +9°C° 0 mm 1 mps 731 mmHg 53%
    09:00 +12°C° 0 mm 1 mps 731 mmHg 45%
    10:00 +15°C° 0 mm 1 mps 731 mmHg 37%
    11:00 +16°C° 0 mm 1 mps 731 mmHg 36%
    12:00 +18°C° 0 mm 1 mps 731 mmHg 36%
    13:00 +19°C° 0 mm 1 mps 730 mmHg 35%
    14:00 +18°C° 0 mm 1 mps 730 mmHg 38%
    15:00 +18°C° 0 mm 1 mps 730 mmHg 41%
    16:00 +18°C° 0 mm 1 mps 730 mmHg 44%
    17:00 +13°C° 0 mm 1 mps 729 mmHg 58%
    18:00 +10°C° 0 mm 1 mps 729 mmHg 72%
    19:00 +7°C° 0 mm 1 mps 729 mmHg 85%
    20:00 +6°C° 0 mm 1 mps 729 mmHg 86%
    21:00 +6°C° 0 mm 1 mps 730 mmHg 87%
    22:00 +5°C° 0 mm 0 mps 730 mmHg 88%
    23:00 +6°C° 0 mm 1 mps 730 mmHg 88%

    29 March, Wednesday

    Time Temperature Precipitation Wind Pressure Humidity
    00:00 +6°C° 0 mm 1 mps 730 mmHg 89%
    01:00 +6°C° 0 mm 1 mps 730 mmHg 89%
    02:00 +6°C° 0 mm 1 mps 730 mmHg 89%
    03:00 +6°C° 0 mm 1 mps 730 mmHg 89%
    04:00 +6°C° 0 mm 1 mps 730 mmHg 89%
    05:00 +7°C° 0 mm 1 mps 731 mmHg 87%
    06:00 +8°C° 0 mm 1 mps 731 mmHg 85%
    07:00 +9°C° 0 mm 1 mps 732 mmHg 83%
    08:00 +12°C° 0 mm 1 mps 732 mmHg 72%
    09:00 +14°C° 0 mm 1 mps 732 mmHg 61%
    10:00 +16°C° 0 mm 0 mps 732 mmHg 50%
    11:00 +19°C° 0 mm 1 mps 732 mmHg 48%
    12:00 +20°C° 0 mm 1 mps 732 mmHg 45%
    13:00 +20°C° 0 mm 1 mps 732 mmHg 42%
    14:00 +20°C° 0 mm 1 mps 732 mmHg 44%
    15:00 +20°C° 0 mm 1 mps 731 mmHg 46%
    16:00 +19°C° 0 mm 1 mps 731 mmHg 49%
    17:00 +15°C° 0 mm 1 mps 731 mmHg 60%
    18:00 +12°C° 0 mm 1 mps 730 mmHg 72%
    19:00 +9°C° 0 mm 1 mps 730 mmHg 84%
    20:00 +9°C° 0 mm 1 mps 730 mmHg 85%
    21:00 +7°C° 0 mm 0 mps 731 mmHg 86%
    22:00 +7°C° 0 mm 0 mps 731 mmHg 87%
    23:00 +6°C° 0 mm 0 mps 731 mmHg 88%
    Show more